[[{"header":{"parameterUnit":"m.s-1","parameterCategory":2,"la1":30.2991,"la2":30.254,"lo1":-89.0895,"lo2":-89.0444,"dy":0.0017,"dx":0.0017,"nx":28,"ny":28,"refTime":"2024-08-27T21:00:00:Z","depth":"0","parameterNumber":2,"parameterNumberName":"U-component_of_CURRENTS"},"data":[0,0,0,0,0,0,0,0,0,0,0,0,0,0,0,0,0,0,0,0,0,0,0,0,0,0,0,0,0,0,0,0,0,0,0,0,0,0,0,0,0,0,0,0,0,0,0,0,0,0,0,0,0,0,0,0,0,0,0.3034,0.3034,0,0.3021,0.3021,0.302,0.3035,0.3035,0.3036,0.3037,0.3035,0.3035,0.3034,0,0,0,0,0,0,0,0,0,0,0,0,0,0.3002,0.3003,0.3034,0.3034,0.3034,0.3021,0.3021,0.302,0.3034,0.3035,0.3036,0.3037,0.3036,0.3035,0.3034,0,0,0,0,0,0,0,0,0,0,0,0,0,0.3003,0.3003,0.3034,0.3041,0.3042,0.3021,0.3021,0.302,0.3034,0.3035,0.3036,0.3037,0.3036,0.3035,0.3034,0.3006,0,0,0.3031,0.303,0,0,0,0,0,0,0,0,0.3003,0.3004,0.304,0.304,0.3041,0.3032,0.3009,0.3017,0.3034,0.3035,0.3037,0.3038,0.3036,0.3035,0.3027,0.3006,0.3006,0.3031,0.303,0.3029,0.3029,0,0,0,0,0,0,0,0.3003,0.3005,0.3027,0.304,0.3041,0.3021,0.3023,0.301,0.3028,0.3035,0.3036,0.3038,0.3036,0.3028,0.3027,0.3006,0.3031,0.303,0.3029,0.3029,0.2996,0.2996,0,0,0,0,0,0,0.3011,0.3005,0.3028,0.3027,0.3027,0.3021,0.3023,0.3032,0.3028,0.3029,0.3037,0.3038,0.3029,0.3028,0.3027,0.3017,0.3029,0.3028,0.3028,0.2996,0.2996,0.2996,0,0,0,0,0,0,0.3011,0.3014,0.3028,0.3016,0.3017,0.3021,0.3031,0.3032,0.3032,0.303,0.3031,0.3038,0.303,0.3029,0.3027,0.3016,0.3028,0.3027,0.2997,0.2996,0.2996,0.2981,0,0,0,0,0,0,0.301,0.3014,0.3021,0.3017,0.3018,0.3021,0.303,0.3031,0.3031,0.3033,0.3031,0.3031,0.3031,0.3028,0.3026,0.3015,0.3026,0.2997,0.2996,0.2996,0.2982,0.2981,0.2979,0,0,0,0,0,0.3009,0.3006,0.3022,0.3024,0.303,0.3021,0.3019,0.3024,0.303,0.3028,0.3031,0.3032,0.3024,0.3027,0.3024,0.3013,0.2997,0.2997,0.2996,0.2983,0.2981,0.2979,0,0,0,0,0,0,0.2968,0.3007,0.3025,0.3027,0.3031,0.3024,0.3018,0.3023,0.3021,0.3025,0.3027,0.3027,0.3027,0.3019,0.3023,0.3003,0.301,0.3009,0.3001,0.3,0.2998,0.306,0.3025,0,0,0,0,0,0.2971,0.2998,0.3012,0.3014,0.3017,0.302,0.3017,0.3022,0.302,0.3021,0.302,0.3018,0.3018,0.301,0.3012,0.299,0.3032,0.2983,0.2981,0.298,0.3028,0.3077,0.3086,0.2994,0.2994,0.2994,0,0,0.2953,0.2979,0.2991,0.301,0.3013,0.301,0.302,0.3015,0.3018,0.302,0.3017,0.3019,0.3016,0.3005,0.3002,0.2996,0.302,0.2979,0.2978,0.3029,0.3078,0.3087,0.3096,0.2994,0.2994,0.2994,0,0,0.2921,0.2955,0.2965,0.2977,0.2993,0.2998,0.3,0.3001,0.3009,0.3005,0.3014,0.3025,0.2998,0.3011,0.301,0.3002,0.3021,0.2976,0.3005,0.3049,0.3059,0.3067,0.3102,0.3114,0.2962,0.2962,0.2962,0,0.29,0.2912,0.2958,0.2964,0.2967,0.2995,0.2984,0.2998,0.2998,0.3009,0.3007,0.3018,0.3015,0.3027,0.3029,0.3003,0.3028,0.3007,0.3051,0.306,0.307,0.3104,0.3117,0.2961,0.2961,0.2961,0.2961,0,0.2874,0.2884,0.2883,0.2919,0.2931,0.2921,0.2955,0.2965,0.2979,0.2998,0.3023,0.3031,0.3043,0.3028,0.3029,0.3075,0.307,0.3053,0.306,0.3078,0.3112,0.3126,0.296,0.296,0.2961,0.2961,0,0,0.2827,0.2859,0.2862,0.2866,0.2905,0.2907,0.2929,0.2954,0.2977,0.2999,0.3027,0.3048,0.3074,0.308,0.3075,0.3121,0.319,0.3116,0.3119,0.3162,0.3286,0.3093,0.309,0.3172,0.3175,0.3178,0.3273,0,0.2787,0.2782,0.2818,0.281,0.2803,0.2852,0.2872,0.2914,0.2951,0.2991,0.3042,0.3069,0.3083,0.3085,0.3139,0.3182,0.3233,0.3167,0.3257,0.3261,0.3095,0.3102,0.2927,0.2981,0.3288,0.329,0.3292,0,0.2739,0.2755,0.2736,0.276,0.2764,0.2775,0.2827,0.285,0.2935,0.2968,0.3031,0.3074,0.3154,0.3157,0.3282,0.3233,0.3282,0.3321,0.3324,0.3175,0.3095,0.3018,0.2996,0.2919,0.3315,0.3313,0.3311,0,0.2671,0.2685,0.267,0.268,0.2724,0.2736,0.2764,0.2842,0.2869,0.2969,0.3002,0.3102,0.3147,0.3242,0.3314,0.3307,0.3448,0.3431,0.3314,0.3301,0.319,0.3159,0.312,0.355,0.3549,0.3549,0.3549,0,0.2603,0.2588,0.2641,0.2637,0.2635,0.2695,0.271,0.276,0.2842,0.2887,0.299,0.304,0.3177,0.3256,0.3332,0.3348,0.3455,0.3346,0.3317,0.317,0.3138,0.3095,0.3103,0.3553,0.3552,0.3551,0.3551,0,0.2514,0.254,0.2526,0.2581,0.2594,0.2601,0.2656,0.2693,0.2772,0.2837,0.287,0.3009,0.3094,0.3196,0.3339,0.333,0.3276,0.3371,0.3174,0.3118,0.2873,0.2887,0.2772,0.2696,0.3255,0.325,0.3247,0,0.246,0.2451,0.2482,0.2495,0.2517,0.254,0.2572,0.2644,0.2691,0.281,0.2847,0.2942,0.3011,0.311,0.3102,0.3153,0.3133,0.3006,0.2953,0.2841,0.2841,0.2764,0.2706,0.2814,0.2807,0.2802,0.2797,0,0.2394,0.2407,0.2423,0.2444,0.2471,0.2477,0.2526,0.254,0.2647,0.2688,0.2768,0.283,0.2884,0.2832,0.2842,0.2855,0.281,0.2885,0.2849,0.2555,0.2401,0.2316,0.2775,0.2748,0.2753,0.2757,0.2759,0.2761,0.2364,0.2366,0.2408,0.2412,0.243,0.2439,0.2419,0.2476,0.2501,0.2545,0.2652,0.2666,0.2644,0.2607,0.2578,0.2357,0.2453,0.2294,0.2346,0.2297,0.2126,0.2442,0.231,0.2313,0.2315,0.2316,0.2318,0,0.2376,0.2387,0.2388,0.239,0.2372,0.2396,0.2412,0.2381,0.2369,0.2411,0.2434,0.2357,0.2267,0.2208,0.1995,0.1873,0.1823,0.1822,0.1741,0.1735,0.2089,0.1967,0.1655,0.1655,0.1655,0.1656,0.1656,0.1656,0.2396,0.2408,0.2396,0.2349,0.2334,0.2277,0.2264,0.2207,0.2197,0.2095,0.2011,0.2027,0.199,0.1839,0.1625,0.1568,0.1487,0.1354,0.1438,0.1752,0.1802,0.185,0.1734,0.1379,0.1379,0.0964,0.0961,0.0959]},{"header":{"parameterUnit":"m.s-1","parameterCategory":2,"la1":30.2991,"la2":30.254,"lo1":-89.0895,"lo2":-89.0444,"dy":0.0017,"dx":0.0017,"nx":28,"ny":28,"refTime":"2024-08-27T21:00:00:Z","depth":"0","parameterNumber":3,"parameterNumberName":"V-component_of_CURRENTS"},"data":[0,0,0,0,0,0,0,0,0,0,0,0,0,0,0,0,0,0,0,0,0,0,0,0,0,0,0,0,0,0,0,0,0,0,0,0,0,0,0,0,0,0,0,0,0,0,0,0,0,0,0,0,0,0,0,0,0,0,0.0227,0.0226,0,0.0082,0.008,0.0078,0.0016,0.0016,0.0017,0.0017,-0.0055,-0.0057,-0.0059,0,0,0,0,0,0,0,0,0,0,0,0,0,0.0404,0.0401,0.0228,0.0226,0.0224,0.0082,0.008,0.0078,0.0016,0.0016,0.0017,0.0017,-0.0054,-0.0057,-0.006,0,0,0,0,0,0,0,0,0,0,0,0,0,0.03,0.04,0.0228,0.0176,0.017,0.0082,0.008,0.0077,0.0016,0.0016,0.0017,0.0017,-0.0054,-0.0057,-0.006,-0.0088,0,0,-0.007,-0.0071,0,0,0,0,0,0,0,0,0.0306,0.0293,0.0185,0.0179,0.0172,0.0068,0.0115,0.0026,0.0016,0.0074,0.0017,0.0017,-0.0008,-0.0015,-0.0044,-0.0091,-0.0094,-0.007,-0.0072,-0.0074,-0.0074,0,0,0,0,0,0,0,0.0313,0.0299,0.017,0.0183,0.0175,0.0143,0.0129,0.0098,0.0034,0.0069,0.0064,0.0048,-0.0011,-0.0041,-0.0046,-0.0095,-0.007,-0.0073,-0.0075,-0.0076,-0.0122,-0.0121,0,0,0,0,0,0,0.0333,0.0306,0.0174,0.0165,0.0241,0.014,0.0124,0.0101,0.0033,0.0022,0.0048,0.0046,-0.0035,-0.0042,-0.0049,-0.0038,-0.0074,-0.0077,-0.0078,-0.0123,-0.0122,-0.0121,0,0,0,0,0,0,0.0337,0.0322,0.018,0.0233,0.0213,0.0137,0.0111,0.0098,0.0072,0.0016,0.0007,0.0036,-0.0035,-0.0044,-0.0071,-0.0042,-0.0078,-0.0081,-0.0123,-0.0122,-0.0121,-0.0046,0,0,0,0,0,0,0.0342,0.0324,0.0317,0.0234,0.021,0.0137,0.011,0.0095,0.0061,0.0057,0.0003,-0.0004,-0.0036,-0.0066,-0.0075,-0.0047,-0.0084,-0.0124,-0.0123,-0.0122,-0.0049,-0.0042,-0.0036,0,0,0,0,0,0.0349,0.034,0.0317,0.0301,0.0201,0.0137,0.0122,0.007,0.006,0.0048,0.0014,-0.0002,-0.0062,-0.0069,-0.0079,-0.0052,-0.0125,-0.0123,-0.0122,-0.0052,-0.0044,-0.0036,0,0,0,0,0,0,0.0398,0.033,0.0304,0.027,0.0212,0.0127,0.0112,0.0076,0.0035,0.0039,-0.0007,-0.0017,-0.0024,-0.0054,-0.006,-0.006,-0.0091,-0.0091,-0.0034,-0.0027,-0.002,0.0015,-0.0086,0,0,0,0,0,0.0408,0.0395,0.0313,0.0287,0.0264,0.019,0.016,0.0122,0.0072,0.0054,0.0017,-0.0012,-0.0028,-0.004,-0.0065,-0.0077,-0.0065,-0.0061,-0.0055,-0.0049,-0.0027,0.0011,0.0024,-0.0115,-0.0115,-0.0115,0,0,0.0419,0.0381,0.0371,0.0299,0.0253,0.0221,0.0173,0.0132,0.0113,0.0055,0.0032,0.0007,-0.0026,-0.0033,-0.0038,-0.0053,-0.0003,-0.0047,-0.0042,-0.0022,0.0015,0.0028,0.0041,-0.0114,-0.0114,-0.0115,0,0,0.044,0.0402,0.0399,0.0359,0.0296,0.025,0.0244,0.0165,0.0142,0.0103,0.0078,0.0074,0.0018,0.0017,0.0007,0.0035,0.0031,0.0024,0.0084,0.012,0.0133,0.0144,0.0184,0.0198,0.0027,0.0027,0.0027,0,0.0455,0.0433,0.0386,0.0369,0.0347,0.0271,0.0259,0.0218,0.0142,0.015,0.0109,0.0088,0.0051,0.0083,0.0084,0.0054,0.0071,0.0057,0.0132,0.0143,0.0153,0.0191,0.0206,0.0031,0.003,0.003,0.0029,0,0.0468,0.045,0.0446,0.0408,0.038,0.0355,0.0296,0.0278,0.0243,0.0214,0.0227,0.0177,0.0181,0.0161,0.012,0.0183,0.0172,0.0138,0.0118,0.0172,0.0208,0.0222,0.0036,0.0035,0.0034,0.0033,0,0,0.0494,0.0464,0.0461,0.0464,0.0402,0.0384,0.0372,0.0352,0.0388,0.0318,0.0373,0.0319,0.0317,0.0307,0.0274,0.0285,0.0355,0.0241,0.0241,0.0293,0.0447,0.0388,0.0398,0.0334,0.0337,0.0339,0.0446,0,0.0514,0.0513,0.049,0.0494,0.0488,0.0448,0.0458,0.0442,0.043,0.0466,0.0436,0.0468,0.0366,0.0394,0.0386,0.0373,0.0394,0.033,0.0377,0.0379,0.033,0.0413,0.0379,0.0467,0.0459,0.0462,0.0463,0,0.0526,0.0529,0.0543,0.0563,0.0563,0.0567,0.0608,0.0606,0.0638,0.0642,0.0664,0.0647,0.067,0.0575,0.0581,0.0544,0.0508,0.0479,0.0482,0.0415,0.0346,0.0409,0.0493,0.0401,0.0485,0.0483,0.0481,0,0.0572,0.0569,0.0595,0.0591,0.0597,0.063,0.0644,0.0674,0.0721,0.0784,0.0851,0.0842,0.089,0.0824,0.0731,0.0677,0.074,0.0663,0.0582,0.0578,0.0554,0.0542,0.0565,0.0689,0.0689,0.0688,0.0688,0,0.0598,0.0622,0.0629,0.0645,0.071,0.0701,0.0796,0.0813,0.0896,0.1002,0.0966,0.1064,0.0956,0.0958,0.0831,0.076,0.0825,0.0627,0.0613,0.0576,0.0566,0.0484,0.0432,0.0692,0.0691,0.0691,0.069,0,0.0644,0.0639,0.0679,0.0712,0.073,0.0786,0.088,0.0969,0.1032,0.118,0.1219,0.1273,0.1275,0.1146,0.1082,0.0927,0.078,0.0794,0.0755,0.0732,0.0522,0.0475,0.0494,0.0449,0.0732,0.0732,0.0731,0,0.067,0.0692,0.0734,0.0779,0.0803,0.0882,0.0959,0.1025,0.1133,0.1311,0.1409,0.1472,0.1517,0.1389,0.1138,0.0941,0.0819,0.0778,0.0647,0.0539,0.0478,0.0432,0.039,0.0658,0.0657,0.0656,0.0655,0,0.0739,0.0752,0.079,0.0865,0.0947,0.1036,0.1152,0.1246,0.1368,0.1499,0.1676,0.1734,0.1626,0.142,0.1143,0.0982,0.0696,0.075,0.0667,0.0456,0.0386,0.0325,0.0559,0.0647,0.0648,0.0649,0.0649,0.0649,0.0803,0.0844,0.0894,0.0965,0.106,0.1185,0.1268,0.1409,0.1572,0.1749,0.1826,0.1888,0.1616,0.1228,0.1043,0.0637,0.0651,0.0484,0.0454,0.043,0.0335,0.0543,0.0579,0.0579,0.058,0.058,0.058,0,0.0873,0.0916,0.0995,0.1085,0.1192,0.1226,0.1397,0.1482,0.1659,0.1801,0.1917,0.1758,0.1444,0.1096,0.0575,0.0364,0.0283,0.0259,0.0199,0.018,0.0401,0.034,0.0291,0.0291,0.0291,0.0291,0.0291,0.0291,0.0922,0.0996,0.102,0.1176,0.1248,0.138,0.1467,0.1592,0.1692,0.1782,0.1756,0.1742,0.145,0.0699,0.0222,0.0133,0.0011,-0.0021,-0.006,0.0082,0.0101,0.0118,0.0049,-0.006,-0.006,-0.0285,-0.0287,-0.0289]}],[{"header":{"parameterUnit":"m.s-1","parameterCategory":2,"la1":30.2991,"la2":30.254,"lo1":-89.0895,"lo2":-89.0444,"dy":0.0017,"dx":0.0017,"nx":28,"ny":28,"refTime":"2024-08-27T21:00:00:Z","depth":"2","parameterNumber":2,"parameterNumberName":"U-component_of_CURRENTS"},"data":[0,0,0,0,0,0,0,0,0,0,0,0,0,0,0,0,0,0,0,0,0,0,0,0,0,0,0,0,0,0,0,0,0,0,0,0,0,0,0,0,0,0,0,0,0,0,0,0,0,0,0,0,0,0,0,0,0,0,0.2078,0.208,0,0.2199,0.2199,0.2199,0.2237,0.2238,0.2238,0.2239,0.2303,0.2304,0.2305,0,0,0,0,0,0,0,0,0,0,0,0,0,0.199,0.1989,0.2077,0.208,0.2083,0.2199,0.2199,0.2199,0.2237,0.2238,0.2239,0.224,0.2303,0.2304,0.2305,0,0,0,0,0,0,0,0,0,0,0,0,0,0.2046,0.1989,0.2077,0.2128,0.2134,0.2199,0.2199,0.2199,0.2236,0.2238,0.2239,0.224,0.2302,0.2304,0.2305,0.2287,0,0,0.2309,0.231,0,0,0,0,0,0,0,0,0.2042,0.2047,0.2117,0.2124,0.2132,0.2218,0.2193,0.2231,0.2236,0.2181,0.2239,0.2241,0.2279,0.2282,0.228,0.229,0.2293,0.2309,0.231,0.2311,0.2311,0,0,0,0,0,0,0,0.2038,0.2043,0.2109,0.2121,0.213,0.2184,0.2191,0.22,0.2207,0.2186,0.2193,0.2231,0.228,0.2279,0.2282,0.2294,0.2309,0.231,0.2311,0.2312,0.2452,0.2455,0,0,0,0,0,0,0.2048,0.2038,0.2106,0.2115,0.2108,0.2185,0.2192,0.2176,0.2209,0.222,0.223,0.2233,0.2276,0.228,0.2285,0.2391,0.2311,0.2312,0.2313,0.2449,0.2453,0.2456,0,0,0,0,0,0,0.2044,0.205,0.2101,0.2096,0.2108,0.2186,0.2168,0.2178,0.2212,0.2246,0.2253,0.226,0.2277,0.2283,0.2326,0.2389,0.2312,0.2314,0.2446,0.245,0.2454,0.2524,0,0,0,0,0,0,0.204,0.2046,0.2037,0.2094,0.2109,0.2144,0.2169,0.218,0.224,0.2244,0.2273,0.2279,0.2278,0.2324,0.2327,0.239,0.2315,0.2442,0.2448,0.2453,0.2518,0.253,0.2541,0,0,0,0,0,0.2035,0.2042,0.2034,0.2045,0.2091,0.2145,0.2155,0.2207,0.224,0.2242,0.2283,0.2279,0.2363,0.2326,0.2329,0.2394,0.2439,0.2446,0.2453,0.2513,0.2528,0.2541,0,0,0,0,0,0,0.2001,0.2049,0.2042,0.2058,0.2095,0.2158,0.2208,0.2224,0.2256,0.2286,0.2294,0.2301,0.2371,0.237,0.233,0.2456,0.241,0.2417,0.2455,0.2469,0.248,0.2511,0.2316,0,0,0,0,0,0.1986,0.2002,0.2043,0.2058,0.2094,0.2146,0.2182,0.221,0.2259,0.2276,0.2306,0.2353,0.2395,0.242,0.2449,0.2498,0.2482,0.2552,0.2564,0.2573,0.2604,0.2654,0.2672,0.2478,0.2478,0.2477,0,0,0.199,0.2015,0.2029,0.2054,0.2107,0.215,0.2169,0.2245,0.2288,0.2278,0.2362,0.2387,0.2417,0.2484,0.2517,0.2494,0.2605,0.2581,0.2589,0.2615,0.2663,0.2681,0.2698,0.2482,0.2481,0.2481,0,0,0.2015,0.2024,0.2048,0.2076,0.2153,0.2189,0.2215,0.2287,0.2332,0.2393,0.242,0.2484,0.2536,0.2578,0.2603,0.2694,0.2662,0.2715,0.2798,0.2846,0.2862,0.2876,0.2804,0.2812,0.2723,0.2723,0.2723,0,0.2026,0.2029,0.2066,0.2095,0.2142,0.221,0.2248,0.2305,0.2377,0.2426,0.2437,0.2572,0.2588,0.2688,0.2732,0.2722,0.2706,0.2735,0.2859,0.2873,0.2887,0.2811,0.2818,0.2727,0.2727,0.2726,0.2726,0,0.2043,0.2063,0.2106,0.2149,0.2187,0.2253,0.2329,0.2391,0.2467,0.2519,0.2646,0.2689,0.2769,0.2795,0.2794,0.2915,0.2852,0.286,0.2817,0.291,0.2823,0.2829,0.2733,0.2731,0.273,0.2729,0,0,0.2053,0.2105,0.2123,0.2137,0.2226,0.226,0.2365,0.2461,0.2544,0.2644,0.2747,0.2858,0.2907,0.2942,0.2965,0.3024,0.3072,0.2998,0.2999,0.2912,0.3102,0.2941,0.2931,0.3112,0.3115,0.3118,0.2973,0,0.2072,0.21,0.2137,0.22,0.2229,0.2317,0.2395,0.2489,0.2597,0.2712,0.2827,0.2922,0.2958,0.3,0.3083,0.3061,0.3108,0.3106,0.3039,0.3035,0.2873,0.2942,0.2743,0.2592,0.2979,0.298,0.298,0,0.2067,0.2092,0.2126,0.2201,0.2232,0.2286,0.2425,0.25,0.2675,0.2761,0.2911,0.2989,0.3094,0.3121,0.3179,0.3176,0.3175,0.3164,0.3157,0.3003,0.2892,0.258,0.2588,0.299,0.299,0.2989,0.2988,0,0.2014,0.2089,0.2109,0.2133,0.223,0.229,0.2367,0.252,0.2598,0.2792,0.2863,0.3021,0.3082,0.3142,0.3149,0.3165,0.3184,0.3175,0.3029,0.301,0.2828,0.2789,0.3269,0.3269,0.3269,0.3269,0.327,0,0.2001,0.2029,0.2088,0.2109,0.2173,0.2246,0.2356,0.2466,0.2616,0.2706,0.2885,0.2972,0.3111,0.3148,0.3151,0.3079,0.3176,0.3052,0.2997,0.2835,0.2801,0.3159,0.3149,0.3264,0.3265,0.3266,0.3267,0,0.1947,0.1976,0.2012,0.2112,0.2144,0.2191,0.2327,0.2402,0.2544,0.2665,0.2717,0.2916,0.2943,0.3018,0.3064,0.3032,0.299,0.2963,0.2704,0.2623,0.2766,0.2761,0.2735,0.2729,0.2724,0.2719,0.2716,0,0.1932,0.1914,0.2,0.2026,0.2088,0.2163,0.222,0.2361,0.2428,0.261,0.2649,0.2757,0.2799,0.2767,0.275,0.267,0.2848,0.2453,0.2481,0.278,0.2728,0.2731,0.2733,0.2217,0.221,0.2204,0.2199,0,0.1894,0.1906,0.1948,0.1993,0.2049,0.21,0.2187,0.2208,0.2356,0.2419,0.2506,0.2539,0.2559,0.2418,0.2351,0.23,0.2437,0.2322,0.2741,0.2393,0.2284,0.2236,0.2256,0.2145,0.215,0.2154,0.2157,0.2159,0.188,0.1887,0.1919,0.196,0.2015,0.2035,0.2058,0.2101,0.213,0.2175,0.2268,0.2233,0.2238,0.2017,0.1922,0.1887,0.2062,0.1995,0.2018,0.2046,0.2023,0.1914,0.1692,0.1694,0.1696,0.1699,0.17,0,0.1819,0.1836,0.1878,0.1921,0.194,0.2009,0.2034,0.1998,0.1968,0.1951,0.1957,0.1732,0.1589,0.1625,0.1472,0.142,0.1457,0.1375,0.144,0.1492,0.1539,0.1496,0.1022,0.102,0.1018,0.1016,0,0,0.1787,0.1788,0.1799,0.1818,0.1872,0.1884,0.1887,0.1813,0.1765,0.1583,0.1509,0.1536,0.1568,0.1287,0.1221,0.1114,0.1305,0.106,0.1605,0.1736,0.1781,0.189,0.188,0,0,0,0,0]},{"header":{"parameterUnit":"m.s-1","parameterCategory":2,"la1":30.2991,"la2":30.254,"lo1":-89.0895,"lo2":-89.0444,"dy":0.0017,"dx":0.0017,"nx":28,"ny":28,"refTime":"2024-08-27T21:00:00:Z","depth":"2","parameterNumber":3,"parameterNumberName":"V-component_of_CURRENTS"},"data":[0,0,0,0,0,0,0,0,0,0,0,0,0,0,0,0,0,0,0,0,0,0,0,0,0,0,0,0,0,0,0,0,0,0,0,0,0,0,0,0,0,0,0,0,0,0,0,0,0,0,0,0,0,0,0,0,0,0,-0.0032,-0.0033,0,-0.0069,-0.0069,-0.0069,-0.009,-0.0091,-0.0091,-0.0092,-0.019,-0.0192,-0.0194,0,0,0,0,0,0,0,0,0,0,0,0,0,0.0057,0.0055,-0.0032,-0.0033,-0.0034,-0.0069,-0.0069,-0.0069,-0.009,-0.0091,-0.0092,-0.0092,-0.0189,-0.0191,-0.0194,0,0,0,0,0,0,0,0,0,0,0,0,0,0.0023,0.0055,-0.0032,-0.0052,-0.0054,-0.0069,-0.0069,-0.0069,-0.009,-0.0091,-0.0092,-0.0092,-0.0188,-0.0191,-0.0194,-0.02,0,0,-0.0204,-0.0206,0,0,0,0,0,0,0,0,0.0025,0.002,-0.0048,-0.005,-0.0053,-0.0079,-0.0074,-0.0117,-0.009,-0.0072,-0.0092,-0.0093,-0.0161,-0.0166,-0.0165,-0.0205,-0.0209,-0.0205,-0.0207,-0.0208,-0.0209,0,0,0,0,0,0,0,0.0027,0.0022,-0.0042,-0.0049,-0.0052,-0.0046,-0.0052,-0.0081,-0.011,-0.0074,-0.0076,-0.0087,-0.0162,-0.0161,-0.0167,-0.0211,-0.0205,-0.0207,-0.0209,-0.0211,-0.0327,-0.0328,0,0,0,0,0,0,0.0022,0.0023,-0.0041,-0.0044,-0.002,-0.0048,-0.0054,-0.0067,-0.0108,-0.0116,-0.0086,-0.0088,-0.0155,-0.0164,-0.0171,-0.0215,-0.0208,-0.0211,-0.0213,-0.0326,-0.0328,-0.0329,0,0,0,0,0,0,0.0024,0.0016,-0.004,-0.0014,-0.0021,-0.0049,-0.0063,-0.0067,-0.0079,-0.0118,-0.0126,-0.0096,-0.0156,-0.0167,-0.0211,-0.0218,-0.0212,-0.0215,-0.0325,-0.0327,-0.0328,-0.028,0,0,0,0,0,0,0.0027,0.0017,0.0012,-0.0014,-0.0023,-0.005,-0.0063,-0.0068,-0.0085,-0.0088,-0.0129,-0.0137,-0.0158,-0.0206,-0.0214,-0.0222,-0.0218,-0.0323,-0.0326,-0.0328,-0.0281,-0.028,-0.028,0,0,0,0,0,0.003,0.0027,0.0012,0.0004,-0.0032,-0.005,-0.0053,-0.0072,-0.0085,-0.0085,-0.0122,-0.0137,-0.0226,-0.0209,-0.0218,-0.0227,-0.0322,-0.0325,-0.0328,-0.0281,-0.028,-0.028,0,0,0,0,0,0,0.0061,0.0023,0.0007,-0.0009,-0.0031,-0.0055,-0.006,-0.0076,-0.0101,-0.0114,-0.0146,-0.0158,-0.02,-0.0226,-0.0207,-0.0272,-0.0279,-0.0283,-0.024,-0.024,-0.024,-0.0183,-0.0221,0,0,0,0,0,0.0064,0.0056,0.0016,0.0007,-0.001,-0.0037,-0.0047,-0.0065,-0.0095,-0.0106,-0.0142,-0.0185,-0.0215,-0.0237,-0.0272,-0.0304,-0.0287,-0.0321,-0.032,-0.032,-0.0283,-0.0213,-0.02,-0.0337,-0.0337,-0.0337,0,0,0.0072,0.0052,0.0046,0.0014,-0.0007,-0.0024,-0.0044,-0.0066,-0.0081,-0.0115,-0.0154,-0.0186,-0.0225,-0.0259,-0.0281,-0.0283,-0.0295,-0.0323,-0.0322,-0.0284,-0.0214,-0.0199,-0.0187,-0.0339,-0.0339,-0.0339,0,0,0.0094,0.0063,0.0064,0.0043,0.0007,-0.0016,-0.0026,-0.0068,-0.0088,-0.013,-0.0156,-0.0179,-0.0252,-0.0257,-0.0273,-0.0293,-0.0294,-0.0331,-0.0278,-0.0212,-0.0198,-0.0185,-0.0227,-0.0218,-0.0329,-0.0329,-0.0329,0,0.0104,0.0094,0.0063,0.0054,0.004,-0.0014,-0.0021,-0.0051,-0.0101,-0.0105,-0.0146,-0.0187,-0.0239,-0.0223,-0.0245,-0.0285,-0.0278,-0.0271,-0.0204,-0.019,-0.0178,-0.0223,-0.0213,-0.0327,-0.0327,-0.0328,-0.0328,0,0.0126,0.0111,0.0106,0.0076,0.0061,0.0041,-0.0009,-0.0034,-0.0079,-0.0099,-0.0111,-0.0154,-0.015,-0.0201,-0.0238,-0.0183,-0.0224,-0.0206,-0.0187,-0.0159,-0.0213,-0.0203,-0.0324,-0.0325,-0.0326,-0.0326,0,0,0.0157,0.0128,0.0124,0.0121,0.0067,0.0061,0.0029,0.0006,0.0017,-0.0043,0.0009,-0.0074,-0.006,-0.0074,-0.0104,-0.008,-0.0045,-0.0108,-0.0106,-0.0121,0.0037,-0.0021,-0.0018,0.0006,0.001,0.0013,-0.0064,0,0.0178,0.018,0.0159,0.0155,0.0142,0.0099,0.0091,0.0066,0.0035,0.0065,0.0046,0.0073,-0.002,0.0012,0.0023,-0.001,-0.0005,-0.003,-0.0011,-0.0013,-0.0039,-0.0001,0.0027,-0.0036,-0.0055,-0.0053,-0.0052,0,0.0201,0.0197,0.0201,0.0202,0.0197,0.0198,0.0201,0.0189,0.0204,0.0198,0.0237,0.024,0.0265,0.0212,0.0185,0.0178,0.0121,0.0074,0.0071,0.0029,-0.0048,-0.0054,-0.0019,-0.0036,-0.0038,-0.0039,-0.004,0,0.0238,0.0231,0.0242,0.0233,0.0218,0.0237,0.0242,0.0238,0.0258,0.033,0.0378,0.0405,0.0457,0.0415,0.0288,0.0266,0.0257,0.0221,0.0102,0.0091,0.0128,0.0116,0.0248,0.0248,0.0248,0.0249,0.0249,0,0.0257,0.0266,0.0269,0.0267,0.0311,0.0295,0.0352,0.0357,0.0417,0.048,0.0485,0.0554,0.0527,0.0505,0.037,0.0251,0.0327,0.013,0.0105,0.0128,0.0118,0.0147,0.0136,0.0246,0.0246,0.0247,0.0247,0,0.0281,0.0274,0.0296,0.0309,0.0324,0.0363,0.0427,0.0468,0.0512,0.0617,0.0669,0.0704,0.0674,0.0577,0.0506,0.0362,0.0248,0.0191,0.0157,0.0132,-0.0002,-0.0011,0.0053,0.0051,0.0049,0.0048,0.0047,0,0.0293,0.0295,0.0335,0.0362,0.0373,0.043,0.0466,0.0517,0.0569,0.0681,0.0744,0.079,0.0783,0.0612,0.0452,0.0248,0.0233,0.0116,0.0095,0.0027,-0.0004,-0.001,-0.0016,0.0107,0.0107,0.0106,0.0106,0,0.0299,0.0314,0.0338,0.0391,0.0441,0.0498,0.0566,0.063,0.0703,0.0799,0.0894,0.0911,0.0793,0.0635,0.0386,0.0242,0.0151,0.0097,0.012,0.0152,0.0075,0.0044,0.0038,0.0102,0.0103,0.0103,0.0103,0.0103,0.0313,0.0342,0.0367,0.0425,0.048,0.0544,0.0605,0.0702,0.081,0.0945,0.0954,0.0969,0.0804,0.0492,0.0291,0.0116,0.0113,0.0016,0.002,0.0024,0.0045,-0.0029,-0.0025,-0.0026,-0.0026,-0.0026,-0.0026,0,0.0302,0.0335,0.039,0.0457,0.0509,0.054,0.0645,0.0712,0.0857,0.0972,0.1048,0.0861,0.0671,0.0491,0.0229,0.0024,0.0032,-0.0037,0.0025,0.003,0.0033,0.0057,-0.0012,-0.0012,-0.0013,-0.0013,0,0,0.0298,0.0329,0.0363,0.0443,0.0501,0.0568,0.0631,0.0762,0.0857,0.0968,0.1002,0.0957,0.072,0.0515,0.0288,0.0152,0.0128,0.0116,0.0125,0.0231,0.0237,0.0085,0.0129,0,0,0,0,0]}],[{"header":{"parameterUnit":"m.s-1","parameterCategory":2,"la1":30.2991,"la2":30.254,"lo1":-89.0895,"lo2":-89.0444,"dy":0.0017,"dx":0.0017,"nx":28,"ny":28,"refTime":"2024-08-27T21:00:00:Z","depth":"4","parameterNumber":2,"parameterNumberName":"U-component_of_CURRENTS"},"data":[0,0,0,0,0,0,0,0,0,0,0,0,0,0,0,0,0,0,0,0,0,0,0,0,0,0,0,0,0,0,0,0,0,0,0,0,0,0,0,0,0,0,0,0,0,0,0,0,0,0,0,0,0,0,0,0,0,0,0.068,0.068,0,0.0694,0.0695,0.0695,0.0724,0.0725,0.0725,0.0726,0.0736,0.0735,0.0735,0,0,0,0,0,0,0,0,0,0,0,0,0,0.0712,0.0711,0.068,0.068,0.0681,0.0694,0.0695,0.0695,0.0724,0.0725,0.0726,0.0726,0.0736,0.0735,0.0735,0,0,0,0,0,0,0,0,0,0,0,0,0,0.0709,0.0711,0.068,0.0697,0.0699,0.0694,0.0695,0.0695,0.0724,0.0725,0.0726,0.0727,0.0736,0.0735,0.0735,0.0712,0,0,0.0733,0.0733,0,0,0,0,0,0,0,0,0.0709,0.0708,0.0695,0.0696,0.0698,0.0709,0.071,0.0701,0.0724,0.0714,0.0726,0.0727,0.0726,0.0726,0.0726,0.0713,0.0713,0.0733,0.0733,0.0733,0.0733,0,0,0,0,0,0,0,0.0709,0.0708,0.0685,0.0695,0.0697,0.0716,0.0716,0.0708,0.0714,0.0715,0.0717,0.0719,0.0727,0.0726,0.0727,0.0713,0.0733,0.0733,0.0732,0.0732,0.0799,0.0801,0,0,0,0,0,0,0.0705,0.0707,0.0685,0.0686,0.0707,0.0715,0.0715,0.0704,0.0714,0.0717,0.0718,0.0721,0.0727,0.0727,0.0727,0.0761,0.0733,0.0732,0.0732,0.0797,0.08,0.0802,0,0,0,0,0,0,0.0706,0.0703,0.0684,0.0698,0.0698,0.0713,0.0701,0.0704,0.0727,0.0717,0.072,0.0741,0.0728,0.0728,0.0741,0.0759,0.0732,0.0731,0.0795,0.0798,0.0801,0.0791,0,0,0,0,0,0,0.0706,0.0702,0.0705,0.0697,0.0697,0.069,0.07,0.0703,0.0725,0.0729,0.0736,0.0737,0.0728,0.0742,0.0741,0.0758,0.0731,0.0792,0.0796,0.08,0.0788,0.0793,0.0797,0,0,0,0,0,0.0707,0.0703,0.0705,0.0703,0.0695,0.069,0.0692,0.0706,0.0726,0.0732,0.0745,0.0738,0.0767,0.0742,0.074,0.0758,0.079,0.0795,0.0799,0.0787,0.0792,0.0797,0,0,0,0,0,0,0.0725,0.0705,0.0707,0.0699,0.07,0.0696,0.0705,0.0718,0.0733,0.0746,0.0743,0.0744,0.0765,0.0773,0.0745,0.0798,0.0786,0.079,0.0777,0.0782,0.0787,0.0838,0.0731,0,0,0,0,0,0.0726,0.0716,0.0706,0.0703,0.0702,0.0709,0.0715,0.0725,0.0733,0.0742,0.0751,0.0771,0.078,0.0789,0.0796,0.0811,0.0849,0.0834,0.0838,0.0841,0.0888,0.0958,0.0973,0.0817,0.0817,0.0817,0,0,0.0737,0.0723,0.0721,0.0707,0.0708,0.0709,0.0715,0.0727,0.0745,0.0739,0.0772,0.0777,0.0788,0.0806,0.082,0.0816,0.0899,0.0847,0.0849,0.0895,0.0965,0.098,0.0993,0.082,0.082,0.0819,0,0,0.0746,0.0735,0.0731,0.0723,0.0724,0.0725,0.0734,0.0743,0.0764,0.0788,0.0794,0.0828,0.0835,0.0855,0.0863,0.0905,0.0914,0.0902,0.0964,0.103,0.1043,0.1056,0.1084,0.1099,0.0909,0.0909,0.0909,0,0.0765,0.0749,0.0733,0.0724,0.0727,0.0735,0.0742,0.0756,0.0777,0.0805,0.0807,0.0872,0.087,0.0913,0.0932,0.0915,0.0943,0.0927,0.1034,0.1048,0.106,0.1087,0.1104,0.0909,0.0909,0.0909,0.0909,0,0.0762,0.0758,0.0754,0.0743,0.0744,0.0751,0.0759,0.0788,0.082,0.0842,0.0906,0.0923,0.0979,0.097,0.0961,0.1048,0.1032,0.1019,0.1013,0.1075,0.1099,0.1116,0.0909,0.0909,0.0909,0.0909,0,0,0.0781,0.0761,0.0762,0.0763,0.0757,0.0758,0.0791,0.0826,0.0873,0.0913,0.0991,0.1018,0.1059,0.1078,0.1077,0.1136,0.1222,0.1125,0.1128,0.114,0.1349,0.1192,0.1195,0.122,0.1224,0.1227,0.1313,0,0.0791,0.0786,0.0774,0.0784,0.078,0.0795,0.0827,0.0862,0.0907,0.0982,0.1038,0.1103,0.1087,0.1129,0.1188,0.1218,0.1276,0.1199,0.1302,0.1306,0.1147,0.1214,0.124,0.1326,0.133,0.1333,0.1335,0,0.0791,0.0784,0.0798,0.0808,0.0813,0.0833,0.0896,0.0925,0.1014,0.1062,0.1149,0.119,0.1292,0.1276,0.1394,0.1343,0.1372,0.1388,0.1391,0.1276,0.1183,0.1265,0.1368,0.1365,0.1363,0.1361,0.1359,0,0.0798,0.0802,0.0821,0.0817,0.0832,0.087,0.09,0.0966,0.1009,0.1136,0.1193,0.1305,0.1384,0.1453,0.1484,0.146,0.1598,0.1561,0.1447,0.1434,0.1551,0.1538,0.1676,0.1676,0.1676,0.1676,0.1675,0,0.0792,0.0805,0.0836,0.0833,0.0882,0.0893,0.0963,0.1015,0.1106,0.1159,0.1251,0.1312,0.1441,0.151,0.1534,0.1534,0.1642,0.1491,0.1464,0.1538,0.1523,0.1561,0.1546,0.1679,0.1678,0.1678,0.1677,0,0.0778,0.0801,0.0815,0.0853,0.088,0.0917,0.0987,0.1027,0.1122,0.1205,0.1255,0.1365,0.1446,0.1523,0.1633,0.1578,0.1602,0.1575,0.1643,0.1613,0.1384,0.1369,0.1477,0.1473,0.1469,0.1466,0.1463,0,0.0765,0.0777,0.0825,0.0844,0.0867,0.0926,0.096,0.1043,0.1077,0.1199,0.1231,0.1353,0.1411,0.1449,0.1521,0.1564,0.1539,0.1535,0.1483,0.141,0.1374,0.1364,0.1354,0.1457,0.1456,0.1455,0.1454,0,0.0733,0.0769,0.0776,0.0814,0.0856,0.0881,0.0939,0.0966,0.1052,0.1153,0.1198,0.1239,0.1318,0.1378,0.1423,0.1438,0.153,0.1496,0.1504,0.1454,0.1387,0.1352,0.1347,0.1441,0.1443,0.1444,0.1445,0,0.0722,0.0723,0.0742,0.0766,0.0806,0.0807,0.0853,0.0888,0.0941,0.1082,0.1088,0.1196,0.1308,0.131,0.1336,0.1354,0.1334,0.1284,0.1302,0.1317,0.1218,0.1106,0.1082,0,0,0,0,0,0.0693,0.0676,0.0688,0.0692,0.0718,0.0736,0.081,0.0854,0.0957,0.0967,0.103,0.109,0.1134,0.1176,0.1166,0.1244,0.1328,0.122,0.1276,0.1369,0.1384,0.1278,0,0,0,0,0,0,0.0678,0.0679,0.0658,0.061,0.0599,0.0614,0.0656,0.073,0.0746,0.0869,0.0914,0.0997,0.1072,0.114,0.1138,0.1151,0.1156,0.1289,0.1285,0.1361,0.1374,0.1386,0.1283,0,0,0,0,0]},{"header":{"parameterUnit":"m.s-1","parameterCategory":2,"la1":30.2991,"la2":30.254,"lo1":-89.0895,"lo2":-89.0444,"dy":0.0017,"dx":0.0017,"nx":28,"ny":28,"refTime":"2024-08-27T21:00:00:Z","depth":"4","parameterNumber":3,"parameterNumberName":"V-component_of_CURRENTS"},"data":[0,0,0,0,0,0,0,0,0,0,0,0,0,0,0,0,0,0,0,0,0,0,0,0,0,0,0,0,0,0,0,0,0,0,0,0,0,0,0,0,0,0,0,0,0,0,0,0,0,0,0,0,0,0,0,0,0,0,0.0178,0.0178,0,0.0185,0.0185,0.0185,0.0179,0.0179,0.0179,0.0179,0.0178,0.0178,0.0178,0,0,0,0,0,0,0,0,0,0,0,0,0,0.0167,0.0167,0.0178,0.0178,0.0178,0.0185,0.0185,0.0185,0.0179,0.0179,0.0179,0.0179,0.0178,0.0178,0.0178,0,0,0,0,0,0,0,0,0,0,0,0,0,0.0172,0.0167,0.0178,0.0177,0.0176,0.0184,0.0185,0.0185,0.018,0.0179,0.0179,0.0179,0.0178,0.0178,0.0178,0.0186,0,0,0.0179,0.0179,0,0,0,0,0,0,0,0,0.0172,0.0173,0.0177,0.0177,0.0177,0.0181,0.018,0.0185,0.018,0.0178,0.0179,0.0178,0.0179,0.0179,0.0181,0.0186,0.0186,0.0179,0.0179,0.0179,0.018,0,0,0,0,0,0,0,0.0172,0.0172,0.0181,0.0177,0.0177,0.0177,0.0178,0.0181,0.018,0.0178,0.0178,0.0179,0.0178,0.018,0.0181,0.0186,0.0179,0.0179,0.018,0.018,0.018,0.018,0,0,0,0,0,0,0.0171,0.0172,0.018,0.0181,0.0174,0.0178,0.0178,0.018,0.018,0.018,0.0179,0.0179,0.018,0.018,0.0181,0.0189,0.0179,0.018,0.018,0.018,0.018,0.018,0,0,0,0,0,0,0.0171,0.0172,0.018,0.0177,0.0178,0.0178,0.018,0.018,0.0183,0.0181,0.018,0.0182,0.018,0.018,0.0185,0.0189,0.018,0.018,0.018,0.018,0.018,0.0206,0,0,0,0,0,0,0.017,0.0172,0.0178,0.0177,0.0178,0.0187,0.018,0.018,0.0184,0.0183,0.0183,0.0182,0.018,0.0185,0.0186,0.0189,0.018,0.0181,0.018,0.018,0.0205,0.0207,0.0208,0,0,0,0,0,0.017,0.0179,0.0178,0.0179,0.0185,0.0187,0.0188,0.0187,0.0184,0.0188,0.0187,0.0182,0.0183,0.0186,0.0186,0.019,0.0181,0.018,0.018,0.0205,0.0206,0.0208,0,0,0,0,0,0,0.0173,0.018,0.0178,0.0188,0.0188,0.0186,0.0194,0.0189,0.0192,0.0194,0.0188,0.0188,0.0191,0.0186,0.0188,0.0186,0.0178,0.0178,0.0197,0.0198,0.02,0.0189,0.018,0,0,0,0,0,0.0178,0.0189,0.0188,0.0195,0.0198,0.0196,0.0198,0.0197,0.0197,0.0198,0.0195,0.0191,0.0191,0.0191,0.0189,0.0194,0.0164,0.0193,0.0194,0.0196,0.0187,0.014,0.0137,0.0179,0.0179,0.0179,0,0,0.0179,0.0186,0.019,0.0198,0.0199,0.0206,0.0197,0.0203,0.0208,0.0198,0.0205,0.0199,0.0193,0.0196,0.0197,0.0193,0.0169,0.0195,0.0197,0.0186,0.014,0.0135,0.0132,0.0179,0.0179,0.0179,0,0,0.0185,0.0194,0.0203,0.0209,0.0216,0.0217,0.0219,0.0218,0.0219,0.0225,0.0216,0.0207,0.0212,0.0201,0.0199,0.0204,0.0178,0.0207,0.0208,0.0164,0.016,0.0156,0.0118,0.0111,0.0208,0.0208,0.0208,0,0.0183,0.0198,0.0205,0.0215,0.0223,0.0222,0.023,0.0234,0.0233,0.023,0.023,0.0212,0.021,0.0201,0.0205,0.0206,0.0179,0.0207,0.0165,0.016,0.0156,0.0118,0.0109,0.0209,0.0209,0.0209,0.0209,0,0.0196,0.0208,0.0215,0.023,0.0239,0.0248,0.0254,0.0259,0.0259,0.0251,0.024,0.023,0.0213,0.0214,0.0216,0.0187,0.0177,0.0173,0.0162,0.0153,0.0114,0.0105,0.0211,0.021,0.021,0.021,0,0,0.0189,0.0218,0.022,0.0232,0.025,0.0258,0.0271,0.0274,0.0273,0.0264,0.0249,0.0243,0.0223,0.0216,0.0208,0.0174,0.0127,0.0164,0.0161,0.0128,0.0031,0.0055,0.0046,0.0117,0.0115,0.0114,0.002,0,0.0195,0.0217,0.0232,0.0254,0.0265,0.0278,0.0289,0.0292,0.0287,0.0273,0.0248,0.0234,0.0229,0.0221,0.0185,0.0145,0.0102,0.0153,0.0043,0.004,0.0062,0.0036,0.0109,0.0012,0.001,0.0008,0.0007,0,0.0205,0.0219,0.0239,0.0268,0.0275,0.0289,0.0305,0.0316,0.0298,0.029,0.026,0.0237,0.0195,0.0188,0.0097,0.0131,0.0079,0.0041,0.0036,0.0039,0.0045,0.002,-0.001,-0.0009,-0.0008,-0.0006,-0.0005,0,0.0201,0.0229,0.0246,0.0257,0.0283,0.0298,0.0316,0.0314,0.0323,0.0295,0.0283,0.0227,0.02,0.0126,0.0064,0.0072,-0.0044,-0.0045,-0.0082,-0.008,-0.0084,-0.0079,-0.0134,-0.0134,-0.0134,-0.0133,-0.0133,0,0.0206,0.022,0.0248,0.0257,0.0282,0.0302,0.0322,0.0329,0.0328,0.033,0.0289,0.0267,0.0181,0.0115,0.0049,-0.0037,-0.006,-0.0094,-0.0108,-0.0069,-0.0061,-0.009,-0.0084,-0.0137,-0.0136,-0.0135,-0.0135,0,0.0192,0.0213,0.0234,0.0266,0.0281,0.0298,0.0343,0.0354,0.0353,0.0352,0.0344,0.0285,0.0207,0.0123,0.0002,-0.0049,-0.0137,-0.0167,-0.0116,-0.0123,-0.0145,-0.0137,-0.0231,-0.0231,-0.0231,-0.0231,-0.0231,0,0.0187,0.0196,0.0234,0.0257,0.0274,0.0308,0.0335,0.0361,0.0377,0.0365,0.0361,0.0289,0.0244,0.0092,-0.0002,-0.0134,-0.0147,-0.0204,-0.0183,-0.0154,-0.0158,-0.0149,-0.0141,-0.0231,-0.0231,-0.0231,-0.0231,0,0.0169,0.0183,0.02,0.0246,0.0283,0.0322,0.0366,0.0381,0.041,0.0403,0.0377,0.0302,0.0212,0.0099,0.0003,-0.0093,-0.0171,-0.0205,-0.0206,-0.0187,-0.0155,-0.0158,-0.0149,-0.0231,-0.0231,-0.0231,-0.0231,0,0.0153,0.0164,0.0197,0.0239,0.0285,0.0334,0.0358,0.039,0.041,0.0412,0.0396,0.0308,0.0254,0.0118,0.0026,-0.0056,-0.0084,-0.012,-0.0126,-0.0127,-0.0058,-0.0001,-0.0054,0,0,0,0,0,0.014,0.0162,0.0196,0.025,0.0295,0.0327,0.0379,0.0402,0.0427,0.042,0.0419,0.0345,0.0212,0.0142,0.0063,0.0011,-0.0109,-0.0087,-0.0156,-0.0233,-0.0232,-0.0166,0,0,0,0,0,0,0.0138,0.0162,0.0188,0.0249,0.0289,0.0344,0.038,0.0398,0.0402,0.041,0.0345,0.0316,0.0187,0.0263,0.0059,0.003,-0.0027,-0.0148,-0.015,-0.0233,-0.0232,-0.0232,-0.0164,0,0,0,0,0]}]]